Regional Weather Roundup
Issued by NWS

Home | Current Version | Previous Version | Text Only | Print | Product List | Glossary On
Versions: 1 2 3 4 5 6 7 8 9 10 11 12 13 14 15 16 17 18 19 20 21 22 23 24 25 26 27 28 29 30 31 32 33 34 35 36 37 38 39 40 41 42 43 44 45 46 47 48 49 50
000
ASUS43 KLMK 261010
RWRKY
KENTUCKY REGIONAL WEATHER ROUNDUP
NATIONAL WEATHER SERVICE LOUISVILLE KY
500 AM EST MON JAN 26 2015

NOTE "FAIR" INDICATES FEW OR NO CLOUDS BELOW 12,000 FEET
WITH NO SIGNIFICANT WEATHER AND/OR OBSTRUCTIONS TO VISIBILITY.

KYZ001>023-026-027-061>063-070>075-261100-
WESTERN AND SOUTH CENTRAL KENTUCKY

CITY           SKY/WX    TMP DP  RH WIND       PRES   REMARKS
PADUCAH        CLOUDY    33  28  81 NW12      29.98R WCI  24
HENDERSON      CLOUDY    30  25  80 NW9G16    29.95R WCI  22
OWENSBORO      CLOUDY    30  25  80 N13G23    29.93R WCI  20
HOPKINSVILLE   CLOUDY    33  30  88 NW14      29.91S WCI  23
BOWLING GREEN  CLOUDY    32  28  85 NW14G24   29.85R WCI  22
GLASGOW        CLOUDY    32  32 100 NW9G20    29.82R FOG     WCI  24
$$

KYZ024-025-028>034-038-045-046-053-261100-
NORTH CENTRAL KENTUCKY

CITY           SKY/WX    TMP DP  RH WIND       PRES   REMARKS
LOUISVILLE/SDF CLOUDY    27  21  78 NW13G25   29.86R WCI  16
LOUISVILLE/LOU CLOUDY    26  20  77 NW12G24   29.86R WCI  16
FORT KNOX      CLOUDY    27  23  84 NW13      29.82R WCI  16
$$

KYZ035>037-039>044-047>052-055>060-089>105-261100-
NORTHEAST KENTUCKY

CITY           SKY/WX    TMP DP  RH WIND       PRES   REMARKS
LEXINGTON      LGT SNOW  27  26  96 NW17G23   29.75R FOG     WCI  14
COVINGTON      CLOUDY    23  18  81 N14G25    29.79R WCI  11
FRANKFORT      CLOUDY    27  23  85 NW13G22   29.77R WCI  16
$$

KYZ054-064>069-076>088-106>120-261100-
SOUTHEAST KENTUCKY

CITY           SKY/WX    TMP DP  RH WIND       PRES   REMARKS
JACKSON        CLOUDY    41  39  93 VRB3      29.63R FOG
LONDON         LGT RAIN  39  34  82 NW7       29.67R WCI  34
SOMERSET       CLOUDY    36  36 100 NW10      29.73R WCI  28
MIDDLESBORO    CLOUDY    39  37  93 CALM      29.67R
MONTICELLO     LGT SNOW  38  37  96 W17       29.75R FOG     WCI  28
$$



USA.gov is the U.S. government's official web portal to all federal, state and local government web resources and services.